Location: Piotrkow Trybunalski
(51.4000°N, 19.6830°E)
Time: 13:34:43
(UTC+02:00)

A-11 Canister half - Pass Details

Date: 28 January 2023
Orbit: 1526 x 1682 km, 47.3° (Epoch: 26 March)

Event Time Altitude Azimuth Distance (km) Brightness Sun altitude
Rises 10:06:27 0° 264° (W) 4,693 11.3 16.5°
Reaches altitude 10° 10:09:28 10° 263° (W) 3,722 10.9 16.7°
Maximum altitude 10:18:48 70° 182° (S) 1,656 9.8 17.3°
Drops below altitude 10° 10:28:27 10° 101° (ESE) 3,835 11.6 17.9°
Sets 10:31:37 0° 100° (E) 4,842 12.0 18.1°
